This demonstration page uses our WeatherBlox Daily Observations layout. Learn more.

Left ArrowRight Arrow

41.86663, -103.66717

Hourly Observations for September 24, 2020

Temp ( °F °C ) Dew Point ( °F °C ) Humidity (%) Winds ( mph kmh ) Pressure ( in mb ) Visibility ( mi km ) Precip ( " mm )
12:53 am 00:53 Clear 53 11.7 41 5 64 64 NNW 5 7 29.92 1013 10 16.0934 0 0
1:53 am 01:53 Clear 52 11.1 40 4.4 64 64 NNW 5 7 29.91 1013 10 16.0934 0 0
2:53 am 02:53 Clear 50 10 40 4.4 68 68 NNW 8 13 29.91 1013 10 16.0934 0 0
3:53 am 03:53 Clear 50 10 38 3.3 63 63 NW 8 13 29.9 1013 10 16.0934 0 0
4:53 am 04:53 Clear 50 10 38 3.3 63 63 NW 9 15 29.9 1012 10 16.0934 0 0
5:53 am 05:53 Clear 48 8.9 37 2.8 66 66 WNW 8 13 29.91 1013 10 16.0934 0 0
6:53 am 06:53 Sunny 45 7.2 37 2.8 74 74 WNW 3 6 29.93 1014 10 16.0934 0 0
7:53 am 07:53 Sunny 50 10 38 3.3 63 63 NW 3 6 29.93 1014 9 14.48406 0 0
8:53 am 08:53 Sunny 58 14.4 40 4.4 51 51 W 3 6 29.92 1013 10 16.0934 0 0
9:53 am 09:53 Sunny 69 20.6 39 3.9 33 33 Calm 29.9 1012 10 16.0934 0 0
10:53 am 10:53 Sunny 75 23.9 37 2.8 25 25 VRB 3 6 29.86 1011 10 16.0934 0 0
11:53 am 11:53 Sunny 82 27.8 36 2.2 19 19 SSE 5 7 29.83 1010 10 16.0934 0 0
12:53 pm 12:53 Sunny 85 29.4 36 2.2 17 17 NW 5 7 29.81 1010 10 16.0934 0 0
1:53 pm 13:53 Sunny 91 32.8 35 1.7 14 14 VRB 3 6 29.76 1008 10 16.0934 0 0
2:53 pm 14:53 Sunny 92 33.3 32 0 12 12 W 13 20 29.74 1007 10 16.0934 0 0
3:53 pm 15:53 Sunny 93 33.9 31 -0.6 11 11 NW 9 15 29.71 1006 10 16.0934 0 0
4:53 pm 16:53 Sunny 94 34.4 31 -0.6 11 11 NW 5 7 29.7 1006 10 16.0934 0 0
5:53 pm 17:53 Sunny 90 32.2 31 -0.6 12 12 SE 3 6 29.69 1006 10 16.0934 0 0
6:53 pm 18:53 Clear 77 25 38 3.3 24 24 ESE 5 7 29.72 1007 8 12.87472 0 0
7:53 pm 19:53 Clear 72 22.2 37 2.8 28 28 E 3 6 29.73 1007 10 16.0934 0 0
8:53 pm 20:53 Clear 66 18.9 40 4.4 39 39 E 6 9 29.74 1007 10 16.0934 0 0
9:53 pm 21:53 Clear 61 16.1 40 4.4 46 46 ESE 6 9 29.72 1007 10 16.0934 0 0
10:53 pm 22:53 Clear 59 15 40 4.4 49 49 E 6 9 29.72 1006 10 16.0934 0 0
11:53 pm 23:53 Clear 61 16.1 38 3.3 43 43 ENE 5 7 29.69 1006 10 16.0934 0 0

Powered by AerisWeather